Home   Weather   Sankt Augustin   Past weeks

Flag for Germany Past Weather in Sankt Augustin, North Rhine-Westphalia, Germany — Yesterday and Last 2 Weeks

Now
59 °F

Sprinkles. Broken clouds.


Feels Like: 58 °F
Forecast: 53 / 67 °F
Wind: 7 mph from Northwest

Location: Koeln / Bonn

Current Time: Aug 19, 2017 at 7:03:28 pm

Latest Report: Aug 19, 2017 at 6:20 pm


Visibility: N/A

Pressure: 30.09 "Hg

Humidity: 82%

Dew Point: 54 °F

Location of Sankt AugustinLocation

Past Weather in Sankt Augustin — Graph

°F

Sankt Augustin Temperature Yesterday

Maximum temperature yesterday: 68 °F (at 1:50 pm)
Minimum temperature yesterday: 57 °F (at 11:50 pm)
Average temperature yesterday: 63 °F

High & Low Weather Summary for the Past Weeks

 TemperatureHumidityPressure
High79 °F (Aug 7, 3:50 pm)100% (Aug 5, 6:50 am)30.24 "Hg (Aug 5, 6:50 am)
Low48 °F (Aug 7, 3:50 am)36% (Aug 7, 1:20 pm)29.77 "Hg (Aug 8, 10:50 am)
Average63 °F82%30.03 "Hg
* Reported Aug 4 5:20 pm — Aug 19 5:50 pm, Sankt Augustin. Weather by CustomWeather, © 2017

Note: Actual official high and low records may vary slightly from our data, if they occured in-between our weather recording intervals... More about our weather records

Advertising

Sankt Augustin Weather History for the Previous 24 Hours

Scroll right to see more
 ConditionsComfort  
Time TempWeatherWind HumidityBarometerVisibility
5:50 pm
Sat, Aug 19
61 °FSprinkles. Broken clouds.17 mph77%30.09 "HgN/A
5:20 pm64 °FSprinkles. Partly sunny.10 mph68%30.07 "HgN/A
4:50 pm66 °FScattered showers. Partly sunny.14 mph60%30.07 "HgN/A
4:20 pm68 °FScattered clouds.14 mph60%30.07 "HgN/A
3:50 pm66 °FScattered clouds.12 mph60%30.07 "HgN/A
3:20 pm66 °FScattered clouds.14 mph60%30.07 "HgN/A
2:50 pm66 °FScattered clouds.16 mph60%30.07 "HgN/A
2:20 pm66 °FScattered showers. Scattered clouds.14 mph64%30.07 "HgN/A
1:50 pm63 °FSprinkles. Partly sunny.13 mph73%30.07 "HgN/A
1:20 pm64 °FPartly sunny.16 mph64%30.07 "HgN/A
12:50 pm64 °FPartly sunny.16 mph64%30.07 "HgN/A
12:20 pm64 °FPartly sunny.16 mph73%30.04 "HgN/A
11:50 am61 °FSprinkles. Partly sunny.13 mph77%30.04 "HgN/A
11:23 am64 °FScattered showers. Partly sunny.16 mph68%30.04 "HgN/A
11:20 am64 °FScattered showers. Partly sunny.17 mph68%30.04 "HgN/A
10:50 am64 °FScattered clouds.16 mph68%30.04 "HgN/A
10:20 am63 °FScattered clouds.16 mph73%30.04 "HgN/A
9:50 am61 °FPassing clouds.12 mph72%30.04 "HgN/A
8:50 am57 °FPassing clouds.12 mph82%30.04 "HgN/A
8:20 am57 °FPassing clouds.12 mph77%30.04 "HgN/A
7:50 am55 °FSunny.10 mph82%30.04 "Hg10 mi
7:20 am54 °FSunny.9 mph88%30.01 "Hg10 mi
6:53 am52 °FSunny.9 mph94%30.01 "Hg10 mi
6:50 am52 °FSunny.9 mph94%30.01 "Hg10 mi
6:20 am52 °FClear.10 mph94%30.01 "Hg10 mi
5:50 am52 °FClear.9 mph94%30.01 "Hg10 mi
5:20 am52 °FClear.8 mph94%30.01 "Hg10 mi
4:50 am52 °FClear.8 mph94%30.01 "Hg10 mi
4:20 am54 °FClear.9 mph88%30.01 "Hg10 mi
3:50 am52 °FClear.8 mph94%30.01 "Hg10 mi
3:20 am54 °FClear.8 mph94%30.01 "Hg10 mi
2:50 am54 °FClear.9 mph94%30.01 "Hg10 mi
2:20 am55 °FClear.10 mph88%30.01 "Hg10 mi
1:50 am54 °FClear.8 mph94%29.98 "Hg10 mi
1:20 am55 °FClear.8 mph88%29.98 "Hg10 mi
12:50 am55 °FClear.5 mph94%29.98 "Hg10 mi
12:20 am57 °FClear.7 mph88%29.98 "Hg10 mi
11:50 pm
Fri, Aug 18
57 °FClear.9 mph88%29.98 "Hg10 mi
11:20 pm59 °FPassing clouds.7 mph88%29.95 "HgN/A
10:50 pm59 °FPartly cloudy.6 mph88%29.95 "HgN/A
10:20 pm61 °FRain showers. Partly cloudy.18 mph88%29.95 "HgN/A
9:57 pm63 °FRain showers. Passing clouds.8 mph88%29.95 "HgN/A
9:20 pm61 °FSprinkles. Passing clouds.7 mph100%29.92 "HgN/A
8:50 pm63 °FPartly cloudy.7 mph88%29.92 "HgN/A
8:25 pm63 °FPartly sunny.3 mph88%29.92 "HgN/A
7:50 pm63 °FBroken clouds.3 mph94%29.89 "HgN/A
7:20 pm64 °FBroken clouds.3 mph83%29.89 "HgN/A
Weather by CustomWeather, © 2017

See weather overviewHow to use our weather pages